XCHHJ MMMD-MMCP

Flight info

Callsign XCHHJ
Flight time 0h 48m
Altitude 8500
Route CPE
Aircraft P212/L-SBDFGIRY/SB1

Departure

Time 2026-05-08 01:18
Airport Manuel Crescencio Rejón International Airport (MMMD)

Arrival

Time 2026-05-08 02:07
Airport Ingeniero Alberto Acuña Ongay International Airport (MMCP)
Time Latitude Longitude Altitude Speed Heading
2026-05-08 01:11 20.93116 -89.66150 37 ft 0 kts 180°
2026-05-08 01:13 20.93104 -89.66150 37 ft 7 kts 179°
2026-05-08 01:13 20.93106 -89.66119 37 ft 6 kts
2026-05-08 01:13 20.93138 -89.66120 37 ft 4 kts 354°
2026-05-08 01:14 20.93175 -89.66127 37 ft 12 kts 354°
2026-05-08 01:14 20.93259 -89.66118 37 ft 8 kts
2026-05-08 01:14 20.93315 -89.66114 37 ft 14 kts
2026-05-08 01:14 20.93456 -89.66106 37 ft 13 kts 18°
2026-05-08 01:15 20.93536 -89.66090 37 ft 10 kts
2026-05-08 01:15 20.93565 -89.66018 37 ft 12 kts 80°
2026-05-08 01:15 20.93609 -89.65981 38 ft 13 kts 11°
2026-05-08 01:15 20.93711 -89.65976 39 ft 17 kts
2026-05-08 01:16 20.93737 -89.65963 39 ft 0 kts 57°
2026-05-08 01:16 20.93737 -89.65906 39 ft 14 kts 104°
2026-05-08 01:16 20.93734 -89.65891 39 ft 0 kts 103°
2026-05-08 01:16 20.93733 -89.65890 39 ft 2 kts 103°
2026-05-08 01:17 20.93683 -89.65673 36 ft 56 kts 105°
2026-05-08 01:17 20.93547 -89.65153 37 ft 84 kts 107°
2026-05-08 01:17 20.93361 -89.64555 169 ft 93 kts 108°
2026-05-08 01:17 20.93159 -89.63872 381 ft 96 kts 107°
2026-05-08 01:18 20.92996 -89.63149 464 ft 110 kts 99°
2026-05-08 01:18 20.92845 -89.62334 626 ft 109 kts 102°
2026-05-08 01:18 20.92678 -89.61563 883 ft 104 kts 101°
2026-05-08 01:18 20.92514 -89.60832 1133 ft 98 kts 103°
2026-05-08 01:19 20.92353 -89.60133 1373 ft 96 kts 103°
2026-05-08 01:19 20.92191 -89.59448 1620 ft 95 kts 103°
2026-05-08 01:19 20.92029 -89.58772 1867 ft 93 kts 104°
2026-05-08 01:19 20.91867 -89.58101 2100 ft 94 kts 104°
2026-05-08 01:20 20.91705 -89.57416 2256 ft 94 kts 104°
2026-05-08 01:20 20.91539 -89.56730 2409 ft 96 kts 104°
2026-05-08 01:20 20.91371 -89.56025 2564 ft 99 kts 104°
2026-05-08 01:20 20.91204 -89.55322 2719 ft 99 kts 104°
2026-05-08 01:21 20.91031 -89.54610 2869 ft 99 kts 105°
2026-05-08 01:21 20.90859 -89.53898 3021 ft 100 kts 104°
2026-05-08 01:21 20.90691 -89.53175 3172 ft 100 kts 105°
2026-05-08 01:21 20.90450 -89.52478 3320 ft 102 kts 126°
2026-05-08 01:22 20.89865 -89.52024 3472 ft 108 kts 150°
2026-05-08 01:22 20.89095 -89.51943 3623 ft 118 kts 182°
2026-05-08 01:22 20.88356 -89.52380 3770 ft 130 kts 218°
2026-05-08 01:22 20.87949 -89.53268 3917 ft 136 kts 246°
2026-05-08 01:23 20.87638 -89.54214 4068 ft 135 kts 243°
2026-05-08 01:23 20.87319 -89.55154 4219 ft 134 kts 243°
2026-05-08 01:23 20.87007 -89.56087 4367 ft 133 kts 243°
2026-05-08 01:23 20.86694 -89.57018 4517 ft 132 kts 243°
2026-05-08 01:24 20.86386 -89.57936 4665 ft 130 kts 244°
2026-05-08 01:24 20.86083 -89.58843 4814 ft 129 kts 243°
2026-05-08 01:24 20.85774 -89.59749 4962 ft 130 kts 243°
2026-05-08 01:24 20.85473 -89.60639 5113 ft 129 kts 243°
2026-05-08 01:25 20.85170 -89.61546 5258 ft 128 kts 244°
2026-05-08 01:25 20.84871 -89.62435 5411 ft 127 kts 243°
2026-05-08 01:25 20.84566 -89.63323 5561 ft 129 kts 243°
2026-05-08 01:25 20.84264 -89.64224 5713 ft 129 kts 244°
2026-05-08 01:26 20.83961 -89.65129 5865 ft 129 kts 244°
2026-05-08 01:26 20.83656 -89.66039 6016 ft 130 kts 243°
2026-05-08 01:26 20.83346 -89.66944 6168 ft 129 kts 243°
2026-05-08 01:26 20.83043 -89.67844 6320 ft 129 kts 243°
2026-05-08 01:27 20.82547 -89.68625 6342 ft 129 kts 212°
2026-05-08 01:27 20.81825 -89.69230 6354 ft 135 kts 215°
2026-05-08 01:27 20.81128 -89.69926 6360 ft 139 kts 217°
2026-05-08 01:27 20.80422 -89.70640 6358 ft 141 kts 218°
2026-05-08 01:28 20.79708 -89.71368 6353 ft 142 kts 217°
2026-05-08 01:28 20.79011 -89.72107 6354 ft 141 kts 218°
2026-05-08 01:28 20.78304 -89.72833 6358 ft 142 kts 218°
2026-05-08 01:28 20.77585 -89.73568 6356 ft 143 kts 217°
2026-05-08 01:29 20.76867 -89.74299 6361 ft 144 kts 218°
2026-05-08 01:29 20.76143 -89.75045 6355 ft 145 kts 218°
2026-05-08 01:29 20.75417 -89.75796 6352 ft 144 kts 218°
2026-05-08 01:29 20.74698 -89.76532 6358 ft 143 kts 218°
2026-05-08 01:30 20.73978 -89.77278 6353 ft 145 kts 218°
2026-05-08 01:30 20.73250 -89.78031 6353 ft 146 kts 218°
2026-05-08 01:30 20.72521 -89.78782 6360 ft 145 kts 218°
2026-05-08 01:30 20.71795 -89.79530 6359 ft 144 kts 218°
2026-05-08 01:31 20.71072 -89.80272 6358 ft 143 kts 218°
2026-05-08 01:31 20.70354 -89.81012 6358 ft 143 kts 218°
2026-05-08 01:31 20.69644 -89.81747 6355 ft 142 kts 218°
2026-05-08 01:31 20.68928 -89.82477 6355 ft 143 kts 218°
2026-05-08 01:32 20.68203 -89.83220 6358 ft 144 kts 218°
2026-05-08 01:32 20.67484 -89.83967 6361 ft 144 kts 218°
2026-05-08 01:32 20.66775 -89.84695 6357 ft 144 kts 218°
2026-05-08 01:32 20.66055 -89.85437 6360 ft 144 kts 218°
2026-05-08 01:33 20.65336 -89.86180 6358 ft 144 kts 218°
2026-05-08 01:33 20.64613 -89.86921 6359 ft 144 kts 218°
2026-05-08 01:33 20.63891 -89.87663 6358 ft 143 kts 218°
2026-05-08 01:33 20.63172 -89.88403 6359 ft 143 kts 218°
2026-05-08 01:34 20.62454 -89.89145 6357 ft 144 kts 218°
2026-05-08 01:34 20.61734 -89.89884 6357 ft 144 kts 218°
2026-05-08 01:34 20.61014 -89.90624 6358 ft 143 kts 218°
2026-05-08 01:34 20.60296 -89.91365 6358 ft 143 kts 218°
2026-05-08 01:35 20.59536 -89.92044 6353 ft 141 kts 208°
2026-05-08 01:35 20.58721 -89.92636 6359 ft 143 kts 210°
2026-05-08 01:35 20.57924 -89.93264 6357 ft 142 kts 210°
2026-05-08 01:35 20.57123 -89.93876 6359 ft 141 kts 210°
2026-05-08 01:36 20.56333 -89.94485 6358 ft 141 kts 210°
2026-05-08 01:36 20.55534 -89.95096 6357 ft 141 kts 210°
2026-05-08 01:36 20.54735 -89.95711 6359 ft 142 kts 210°
2026-05-08 01:36 20.53935 -89.96322 6360 ft 141 kts 210°
2026-05-08 01:37 20.53133 -89.96938 6358 ft 142 kts 210°
2026-05-08 01:37 20.52330 -89.97554 6359 ft 143 kts 210°
2026-05-08 01:37 20.51540 -89.98161 6357 ft 141 kts 210°
2026-05-08 01:37 20.50741 -89.98779 6358 ft 142 kts 210°
2026-05-08 01:38 20.49933 -89.99395 6358 ft 143 kts 210°
2026-05-08 01:38 20.49123 -90.00011 6360 ft 143 kts 210°
2026-05-08 01:38 20.48320 -90.00632 6360 ft 143 kts 210°
2026-05-08 01:38 20.47510 -90.01252 6359 ft 144 kts 210°
2026-05-08 01:39 20.46701 -90.01874 6359 ft 143 kts 210°
2026-05-08 01:39 20.45891 -90.02494 6359 ft 143 kts 210°
2026-05-08 01:39 20.45085 -90.03113 6360 ft 142 kts 210°
2026-05-08 01:39 20.44280 -90.03730 6356 ft 142 kts 210°
2026-05-08 01:40 20.43480 -90.04345 6357 ft 142 kts 210°
2026-05-08 01:40 20.42681 -90.04955 6356 ft 141 kts 210°
2026-05-08 01:40 20.41885 -90.05559 6355 ft 140 kts 210°
2026-05-08 01:40 20.41092 -90.06169 6356 ft 141 kts 210°
2026-05-08 01:41 20.40295 -90.06785 6355 ft 142 kts 210°
2026-05-08 01:41 20.39494 -90.07391 6353 ft 141 kts 210°
2026-05-08 01:41 20.38707 -90.07996 6355 ft 142 kts 210°
2026-05-08 01:41 20.37906 -90.08613 6355 ft 143 kts 210°
2026-05-08 01:42 20.37098 -90.09232 6356 ft 143 kts 210°
2026-05-08 01:42 20.36294 -90.09845 6355 ft 141 kts 210°
2026-05-08 01:42 20.35499 -90.10454 6356 ft 141 kts 210°
2026-05-08 01:42 20.34699 -90.11066 6356 ft 141 kts 210°
2026-05-08 01:43 20.33897 -90.11676 6354 ft 142 kts 210°
2026-05-08 01:43 20.33098 -90.12288 6355 ft 141 kts 210°
2026-05-08 01:43 20.32304 -90.12900 6353 ft 140 kts 209°
2026-05-08 01:43 20.31507 -90.13503 6353 ft 141 kts 210°
2026-05-08 01:44 20.30714 -90.14112 6352 ft 141 kts 210°
2026-05-08 01:44 20.29916 -90.14720 6352 ft 141 kts 210°
2026-05-08 01:44 20.29127 -90.15325 6352 ft 140 kts 210°
2026-05-08 01:44 20.28330 -90.15936 6353 ft 142 kts 210°
2026-05-08 01:45 20.27528 -90.16548 6354 ft 142 kts 210°
2026-05-08 01:45 20.26727 -90.17159 6355 ft 141 kts 210°
2026-05-08 01:45 20.25931 -90.17765 6357 ft 140 kts 210°
2026-05-08 01:45 20.25134 -90.18378 6354 ft 142 kts 210°
2026-05-08 01:46 20.24331 -90.18988 6356 ft 142 kts 210°
2026-05-08 01:46 20.23540 -90.19595 6355 ft 142 kts 210°
2026-05-08 01:46 20.22742 -90.20210 6355 ft 140 kts 210°
2026-05-08 01:46 20.21944 -90.20815 6354 ft 140 kts 210°
2026-05-08 01:47 20.21155 -90.21419 6352 ft 140 kts 210°
2026-05-08 01:47 20.20345 -90.22034 6253 ft 146 kts 210°
2026-05-08 01:47 20.19505 -90.22675 6132 ft 150 kts 210°
2026-05-08 01:48 20.17817 -90.23962 5887 ft 147 kts 210°
2026-05-08 01:48 20.16987 -90.24598 5762 ft 147 kts 209°
2026-05-08 01:48 20.16154 -90.25231 5636 ft 148 kts 210°
2026-05-08 01:48 20.15317 -90.25870 5511 ft 148 kts 209°
2026-05-08 01:49 20.14481 -90.26508 5386 ft 148 kts 209°
2026-05-08 01:49 20.13643 -90.27146 5261 ft 149 kts 209°
2026-05-08 01:49 20.12804 -90.27789 5136 ft 149 kts 209°
2026-05-08 01:49 20.11953 -90.28432 5012 ft 151 kts 209°
2026-05-08 01:50 20.11108 -90.29086 4857 ft 148 kts 209°
2026-05-08 01:50 20.10289 -90.29710 4683 ft 146 kts 209°
2026-05-08 01:50 20.09469 -90.30338 4507 ft 145 kts 207°
2026-05-08 01:50 20.08639 -90.30962 4328 ft 147 kts 208°
2026-05-08 01:51 20.07807 -90.31597 4154 ft 147 kts 208°
2026-05-08 01:51 20.06971 -90.32232 3979 ft 148 kts 207°
2026-05-08 01:51 20.06137 -90.32864 3806 ft 147 kts 208°
2026-05-08 01:51 20.05308 -90.33509 3628 ft 148 kts 207°
2026-05-08 01:52 20.04461 -90.34146 3452 ft 149 kts 207°
2026-05-08 01:52 20.03618 -90.34791 3276 ft 149 kts 207°
2026-05-08 01:52 20.02772 -90.35430 3102 ft 150 kts 207°
2026-05-08 01:52 20.01924 -90.36077 2927 ft 150 kts 206°
2026-05-08 01:53 20.01073 -90.36723 2754 ft 150 kts 208°
2026-05-08 01:53 20.00224 -90.37372 2577 ft 151 kts 208°
2026-05-08 01:53 19.99370 -90.38022 2405 ft 151 kts 209°
2026-05-08 01:53 19.98510 -90.38673 2227 ft 151 kts 211°
2026-05-08 01:54 19.97677 -90.39317 2058 ft 149 kts 211°
2026-05-08 01:54 19.96816 -90.39940 1888 ft 149 kts 209°
2026-05-08 01:54 19.95988 -90.40569 1854 ft 142 kts 212°
2026-05-08 01:54 19.95209 -90.41184 1851 ft 134 kts 216°
2026-05-08 01:55 19.94480 -90.41733 1851 ft 123 kts 215°
2026-05-08 01:55 19.93790 -90.42261 1864 ft 119 kts 215°
2026-05-08 01:55 19.93136 -90.42760 1982 ft 114 kts 214°
2026-05-08 01:55 19.92482 -90.43254 1991 ft 117 kts 214°
2026-05-08 01:56 19.91818 -90.43757 2002 ft 119 kts 214°
2026-05-08 01:56 19.91135 -90.44270 2000 ft 120 kts 214°
2026-05-08 01:56 19.90454 -90.44794 2004 ft 122 kts 214°
2026-05-08 01:56 19.89763 -90.45322 2004 ft 124 kts 214°
2026-05-08 01:57 19.89053 -90.45861 2009 ft 126 kts 215°
2026-05-08 01:57 19.88335 -90.46408 2008 ft 127 kts 216°
2026-05-08 01:57 19.87618 -90.46956 2002 ft 126 kts 213°
2026-05-08 01:57 19.86913 -90.47481 2000 ft 123 kts 213°
2026-05-08 01:58 19.86223 -90.48013 1998 ft 123 kts 214°
2026-05-08 01:58 19.85529 -90.48539 1996 ft 123 kts 214°
2026-05-08 01:58 19.84835 -90.49062 1991 ft 121 kts 214°
2026-05-08 01:58 19.84162 -90.49577 1993 ft 118 kts 215°
2026-05-08 01:59 19.83498 -90.50082 1990 ft 116 kts 214°
2026-05-08 01:59 19.82785 -90.50450 1992 ft 115 kts 190°
2026-05-08 01:59 19.82002 -90.50526 1988 ft 111 kts 187°
2026-05-08 01:59 19.81196 -90.50640 2001 ft 122 kts 187°
2026-05-08 02:00 19.80334 -90.50753 2007 ft 128 kts 186°
2026-05-08 02:00 19.79462 -90.50860 2007 ft 126 kts 187°
2026-05-08 02:00 19.78589 -90.50979 2003 ft 124 kts 187°
2026-05-08 02:00 19.77771 -90.51086 1994 ft 113 kts 188°
2026-05-08 02:01 19.77023 -90.51188 1992 ft 106 kts 189°
2026-05-08 02:01 19.76292 -90.51281 1989 ft 106 kts 187°
2026-05-08 02:01 19.75550 -90.51376 1991 ft 109 kts 188°
2026-05-08 02:01 19.74793 -90.51470 1839 ft 108 kts 188°
2026-05-08 02:02 19.74063 -90.51567 1662 ft 104 kts 190°
2026-05-08 02:02 19.73340 -90.51676 1474 ft 106 kts 188°
2026-05-08 02:02 19.72694 -90.51421 1455 ft 92 kts 133°
2026-05-08 02:02 19.72450 -90.50717 1205 ft 110 kts 102°
2026-05-08 02:03 19.72379 -90.49952 1195 ft 104 kts 78°
2026-05-08 02:03 19.72746 -90.49342 1188 ft 97 kts 32°
2026-05-08 02:03 19.73336 -90.49035 1179 ft 95 kts 17°
2026-05-08 02:03 19.73986 -90.48930 1190 ft 95 kts 15°
2026-05-08 02:04 19.74631 -90.48772 1189 ft 95 kts
2026-05-08 02:04 19.75075 -90.48747 1185 ft 94 kts
2026-05-08 02:04 19.75721 -90.48798 1151 ft 96 kts 356°
2026-05-08 02:04 19.76410 -90.48846 1060 ft 100 kts 346°
2026-05-08 02:05 19.77045 -90.49029 1002 ft 84 kts 331°
2026-05-08 02:05 19.77609 -90.49203 843 ft 89 kts 353°
2026-05-08 02:05 19.78205 -90.49289 721 ft 86 kts 352°
2026-05-08 02:05 19.78810 -90.49328 615 ft 85 kts 354°
2026-05-08 02:06 19.79383 -90.49462 508 ft 78 kts 345°
2026-05-08 02:06 19.79955 -90.49602 275 ft 94 kts 349°
2026-05-08 02:06 19.80597 -90.49763 145 ft 88 kts 344°
2026-05-08 02:06 19.81202 -90.49913 42 ft 87 kts 348°
2026-05-08 02:07 19.81653 -90.50029 28 ft 32 kts 345°
2026-05-08 02:07 19.81782 -90.50092 28 ft 11 kts 304°
2026-05-08 02:07 19.81720 -90.50141 27 ft 20 kts 194°
2026-05-08 02:07 19.81628 -90.50165 27 ft 12 kts 187°
2026-05-08 02:08 19.81598 -90.50169 27 ft 13 kts 191°